Cosmos 1420 Rocket - Orbit

View from above orbital plane
View from above orbital plane
View from above satellite
View from above satellite

Ground track
Ground track

The orbit data is extracted from the following two-line orbital elements,

1 13649U 82109B   13141.80685887  .00000193  00000-0  74740-4 0   409
2 13649 074.0007 232.3666 0018823 014.3629 133.3790 14.36487064597996
Epoch (UTC): 21 May 2013 19:21:52
Eccentricity: 0.0018823
inclination: 74.0007°
perigee height: 756 km
apogee height: 783 km
right ascension of ascending node: 232.3666°
argument of perigee: 14.3629°
revolutions per day: 14.36487064
mean anomaly at epoch: 133.3790°
orbit number at epoch: 59799

The dashed part of the orbit path shows where the satellite is in the earth's shadow,  

Developed and maintained by Chris Peat, Heavens-Above GmbH. Please read the updated FAQ before sending e-mail. Imprint. DLR